This is the latest recevied weather packets stored in our database for station/object KI6PPU. If no packets are shown the sender has not sent any weather packets the latest 10 day(s).
| Time | Temp. | Humidity | Pressure | Rain* | Wind** | Luminosity | Snow |
|---|---|---|---|---|---|---|---|
| 1778025826 | 15° C | 86% | 1017.7 hPa | 0 mm | - | 34 W/m² | - |
| 1778025522 | 15° C | 85% | 1017.6 hPa | 0 mm | - | 35 W/m² | - |
| 1778025220 | 15° C | 86% | 1017.6 hPa | 0 mm | - | 34 W/m² | - |
| 1778024916 | 15° C | 85% | 1017.6 hPa | 0 mm | - | 34 W/m² | - |
| 1778024615 | 15° C | 85% | 1017.5 hPa | 0 mm | - | 34 W/m² | - |
| 1778024311 | 15° C | 83% | 1017.7 hPa | 0 mm | - | 38 W/m² | - |
| 1778024009 | 15° C | 81% | 1017.5 hPa | 0 mm | - | 38 W/m² | - |
| 1778023706 | 15° C | 83% | 1017.5 hPa | 0 mm | - | 39 W/m² | - |
| 1778023404 | 15° C | 83% | 1017.5 hPa | 0 mm | - | 39 W/m² | - |
| 1778023100 | 15° C | 81% | 1017.6 hPa | 0 mm | - | 39 W/m² | - |
| 1778022798 | 15.56° C | 82% | 1017.7 hPa | 0 mm | - | 38 W/m² | - |
| 1778022496 | 15° C | 80% | 1017.6 hPa | 0 mm | - | 38 W/m² | - |
| 1778022193 | 15° C | 81% | 1017.6 hPa | 0 mm | - | 38 W/m² | - |
| 1778021889 | 15.56° C | 81% | 1017.6 hPa | 0 mm | - | 39 W/m² | - |
| 1778021587 | 15.56° C | 79% | 1017.6 hPa | 0 mm | - | 49 W/m² | - |
| 1778021281 | 16.11° C | 81% | 1017.5 hPa | 0 mm | - | 73 W/m² | - |
| 1778020980 | 16.11° C | 77% | 1017.5 hPa | 0 mm | - | 115 W/m² | - |
| 1778020677 | 16.67° C | 79% | 1017.6 hPa | 0 mm | - | 164 W/m² | - |
| 1778020374 | 16.67° C | 78% | 1017.4 hPa | 0 mm | - | 181 W/m² | - |
| 1778020069 | 16.11° C | 76% | 1017.8 hPa | 0 mm | - | 186 W/m² | - |
| 1778019766 | 16.11° C | 78% | 1017.5 hPa | 0 mm | - | 213 W/m² | - |
| 1778019463 | 16.11° C | 77% | 1017.7 hPa | 0 mm | - | 217 W/m² | - |
| 1778019160 | 16.11° C | 81% | 1017.5 hPa | 0 mm | - | 194 W/m² | - |
| 1778018856 | 15.56° C | 77% | 1017.9 hPa | 0 mm | - | 158 W/m² | - |
| 1778018554 | 15.56° C | 81% | 1017.9 hPa | 0 mm | - | 144 W/m² | - |
* Rain latest hour (hover to see other rain measurements)
** Current wind speed in m/s (hover to see current wind gust speed)